Weather in Lake Ozark

United States     38°11′55″N   92°38′17″W
temp.,
°C
wind,
m/s
gust,
m/s
humid.,
%
clouds,
%
prec.,
mm/h
press.,
hPa
HPBL,
m
18 may, tue
tue1801:00+18sse41299100 4.2 1012653
04:00+17se2899100 0.9 1013466
07:00+18sse1699100 2.4 1014284
10:00+19sse3798100 1.1 1015725
13:00+22sse4681100 1.3 1014876
16:00+23sse5775100 0.4 10131092
19:00+20se499455 1.4 1013648
22:00+18se31196100 0.0 1015593
19 may, wed
wed1901:00+18se41398100 0.3 1014698
04:00+19sse31099100 1.4 1014815
07:00+18ese3899100 3.9 1015556
10:00+17se51397100 0.5 1016732
13:00+17sse51397100 1.3 10161031
16:00+18sse499583 0.4 1015641
19:00+21se4878100 0.5 1014747
22:00+18se31197100 0.0 1016500
20 may, thu
thu2001:00+18sse4148495 0.0 1017707
04:00+19s31188100 0.0 1018901
07:00+19sse41298100 1.3 1018873
10:00+21sse51086100 0.6 1019859
13:00+26s61053100 0.8 10191508
16:00+27sse61057100 0.0 10181670
19:00+24sse61168100 0.1 10181194
22:00+22sse51371100 0.0 10201071
21 may, fri
fri2101:00+20s41484100 0.1 1021903
04:00+18sse31297100 0.8 1021485
07:00+18sse31198100 0.8 1023393
10:00+19s31198100 2.2 1025530
13:00+26s5952100 2.3 10241428
16:00+27s4751100 0.0 10231453
19:00+24ssw2473100 0.0 1023116
22:00+21s311780 0.0 1024385
22 may, sat
sat2201:00+18s211900 0.0 1025314
04:00+17s23960 0.0 102560
07:00+18s14910 0.0 1026128
10:00+25ssw35625 0.0 1026871
13:00+29sw3349100 0.2 10242086
16:00+30s344899 0.0 10221979
19:00+25sw257814 0.3 1022258
22:00+20sw11905 0.0 102211